| time (UTC) | temp C | wind direction | speed KPH | gust KPH | rain 1hr cm | rain 24hr cm | rain mn cm | humidity % | barometer mb |
| 20260505001516 | 22 | 0.0 | 0.0 | 0.00 | 0.00 | 0.00 | 40 | 1013.0 | |
| 20260505000516 | 22 | 0.0 | 0.0 | 0.00 | 0.00 | 0.00 | 39 | 1012.9 | |
| 20260504235516 | 22 | 0.0 | 0.0 | 0.00 | 0.00 | 0.00 | 39 | 1012.6 | |
| 20260504234516 | 23 | 0.0 | 1.6 | 0.00 | 0.00 | 0.00 | 37 | 1012.5 | |
| 20260504233516 | 23 | 0.0 | 1.6 | 0.00 | 0.00 | 0.00 | 36 | 1012.4 | |
| 20260504232536 | 23 | 0.0 | 1.6 | 0.00 | 0.00 | 0.00 | 35 | 1012.2 | |
| 20260504231516 | 23 | 0.0 | 0.0 | 0.00 | 0.00 | 0.00 | 35 | 1012.2 | |
| 20260504230516 | 24 | 0.0 | 1.6 | 0.00 | 0.00 | 0.00 | 32 | 1012.2 | |
| 20260504225516 | 25 | 0.0 | 1.6 | 0.00 | 0.00 | 0.00 | 31 | 1012.3 | |
| 20260504224516 | 25 | 0.0 | 1.6 | 0.00 | 0.00 | 0.00 | 30 | 1012.3 | |
| 20260504223536 | 25 | 0.0 | 6.4 | 0.00 | 0.00 | 0.00 | 32 | 1012.2 | |
| 20260504222536 | 25 | 0.0 | 1.6 | 0.00 | 0.00 | 0.00 | 31 | 1012.3 | |
| 20260504221516 | 25 | 0.0 | 1.6 | 0.00 | 0.00 | 0.00 | 31 | 1012.4 | |
| 20260504220516 | 26 | 0.0 | 3.2 | 0.00 | 0.00 | 0.00 | 30 | 1012.4 | |
| 20260504215516 | 26 | 0.0 | 3.2 | 0.00 | 0.00 | 0.00 | 30 | 1012.5 | |
| 20260504214516 | 26 | 0.0 | 3.2 | 0.00 | 0.00 | 0.00 | 30 | 1012.3 | |
| 20260504213516 | 26 | 0.0 | 8.0 | 0.00 | 0.00 | 0.00 | 30 | 1012.4 | |
| 20260504212516 | 26 | 0.0 | 3.2 | 0.00 | 0.00 | 0.00 | 28 | 1012.6 | |
| 20260504211516 | 26 | 0.0 | 4.8 | 0.00 | 0.00 | 0.00 | 29 | 1012.6 | |
| 20260504210516 | 26 | 0.0 | 1.6 | 0.00 | 0.00 | 0.00 | 27 | 1012.5 | |
| 20260504205516 | 26 | 135 | 1.6 | 9.7 | 0.00 | 0.00 | 0.00 | 30 | 1012.6 |
| 20260504204516 | 26 | 158 | 1.6 | 8.0 | 0.00 | 0.00 | 0.00 | 29 | 1012.7 |
| 20260504203517 | 27 | 203 | 1.6 | 3.2 | 0.00 | 0.00 | 0.00 | 29 | 1012.9 |
| 20260504202516 | 27 | 0.0 | 4.8 | 0.00 | 0.00 | 0.00 | 30 | 1013.1 | |
| 20260504201516 | 26 | 158 | 1.6 | 8.0 | 0.00 | 0.00 | 0.00 | 30 | 1013.2 |
| 20260504200516 | 27 | 0.0 | 3.2 | 0.00 | 0.00 | 0.00 | 30 | 1013.3 | |
| 20260504195516 | 27 | 0.0 | 1.6 | 0.00 | 0.00 | 0.00 | 31 | 1013.4 | |
| 20260504194516 | 27 | 0.0 | 1.6 | 0.00 | 0.00 | 0.00 | 32 | 1013.5 | |
| 20260504193516 | 26 | 0.0 | 1.6 | 0.00 | 0.00 | 0.00 | 32 | 1013.5 | |
| 20260504192516 | 26 | 158 | 1.6 | 8.0 | 0.00 | 0.00 | 0.00 | 32 | 1013.7 |
| 20260504191516 | 26 | 135 | 3.2 | 6.4 | 0.00 | 0.00 | 0.00 | 33 | 1013.8 |
| 20260504190516 | 26 | 113 | 1.6 | 6.4 | 0.00 | 0.00 | 0.00 | 35 | 1013.9 |
| 20260504185516 | 25 | 68 | 1.6 | 8.0 | 0.00 | 0.00 | 0.00 | 34 | 1014.2 |
| 20260504184536 | 26 | 0.0 | 3.2 | 0.00 | 0.00 | 0.00 | 31 | 1014.3 | |
| 20260504183516 | 26 | 315 | 1.6 | 6.4 | 0.00 | 0.00 | 0.00 | 31 | 1014.3 |
| 20260504182536 | 25 | 113 | 1.6 | 4.8 | 0.00 | 0.00 | 0.00 | 33 | 1014.5 |
| 20260504181516 | 25 | 113 | 6.4 | 14.5 | 0.00 | 0.00 | 0.00 | 36 | 1014.4 |
| 20260504180556 | 25 | 135 | 1.6 | 4.8 | 0.00 | 0.00 | 0.00 | 33 | 1014.4 |
| 20260504175516 | 25 | 0.0 | 3.2 | 0.00 | 0.00 | 0.00 | 33 | 1014.5 | |
| 20260504174516 | 25 | 0.0 | 4.8 | 0.00 | 0.00 | 0.00 | 33 | 1014.7 | |
| 20260504173516 | 25 | 338 | 1.6 | 4.8 | 0.00 | 0.00 | 0.00 | 34 | 1014.9 |
| 20260504172516 | 25 | 135 | 1.6 | 4.8 | 0.00 | 0.00 | 0.00 | 34 | 1014.9 |
| 20260504171516 | 25 | 315 | 1.6 | 8.0 | 0.00 | 0.00 | 0.00 | 34 | 1015.0 |
| 20260504170517 | 24 | 0.0 | 3.2 | 0.00 | 0.00 | 0.00 | 36 | 1015.2 | |
| 20260504150516 | 21 | 135 | 1.6 | 8.0 | 0.00 | 0.00 | 0.00 | 49 | 1016.6 |
| 20260504140517 | 19 | 0.0 | 3.2 | 0.00 | 0.00 | 0.00 | 59 | 1016.7 | |
| 20260504081017 | 9 | 0.0 | 0.0 | 0.00 | 0.00 | 0.00 | 80 | 1015.7 | |
| 20260504050017 | 11 | 0.0 | 0.0 | 0.00 | 0.00 | 0.00 | 75 | 1016.1 | |
| 20260504045017 | 10 | 0.0 | 0.0 | 0.00 | 0.00 | 0.00 | 76 | 1016.0 | |
| 20260504044017 | 10 | 0.0 | 0.0 | 0.00 | 0.00 | 0.00 | 76 | 1016.1 | |
| 20260504043017 | 10 | 0.0 | 0.0 | 0.00 | 0.00 | 0.00 | 75 | 1016.2 | |
| 20260504042017 | 10 | 0.0 | 0.0 | 0.00 | 0.00 | 0.00 | 74 | 1016.3 | |
| 20260504041017 | 11 | 0.0 | 0.0 | 0.00 | 0.00 | 0.00 | 73 | 1016.3 | |
| 20260504040015 | 11 | 0.0 | 0.0 | 0.00 | 0.00 | 0.00 | 72 | 1016.3 | |
| 20260504035016 | 11 | 0.0 | 0.0 | 0.00 | 0.00 | 0.00 | 71 | 1016.4 | |
| 20260504034016 | 11 | 0.0 | 0.0 | 0.00 | 0.00 | 0.00 | 71 | 1016.5 | |
| 20260504033016 | 11 | 0.0 | 0.0 | 0.00 | 0.00 | 0.00 | 69 | 1016.5 | |
| 20260504032039 | 12 | 0.0 | 0.0 | 0.00 | 0.00 | 0.00 | 68 | 1016.5 | |
| 20260504031516 | 12 | 0.0 | 0.0 | 0.00 | 0.00 | 0.00 | 68 | 1016.5 | |
| 20260504030516 | 12 | 0.0 | 0.0 | 0.00 | 0.00 | 0.00 | 66 | 1016.5 | |
| 20260504025516 | 12 | 0.0 | 0.0 | 0.00 | 0.00 | 0.00 | 66 | 1016.4 | |
| 20260504024516 | 12 | 0.0 | 0.0 | 0.00 | 0.00 | 0.00 | 65 | 1016.3 | |
| 20260504023516 | 13 | 0.0 | 0.0 | 0.00 | 0.00 | 0.00 | 64 | 1016.3 | |
| 20260504022536 | 13 | 0.0 | 0.0 | 0.00 | 0.00 | 0.00 | 63 | 1016.1 | |
| 20260504022103 | 13 | 0.0 | 0.0 | 0.00 | 0.00 | 0.00 | 63 | 1016.1 | |
| 20260504021016 | 13 | 0.0 | 0.0 | 0.00 | 0.00 | 0.00 | 62 | 1015.9 | |
| 20260504020017 | 13 | 0.0 | 0.0 | 0.00 | 0.00 | 0.00 | 62 | 1015.7 | |
| 20260504015016 | 13 | 0.0 | 0.0 | 0.00 | 0.00 | 0.00 | 61 | 1015.6 | |
| 20260504014016 | 13 | 0.0 | 0.0 | 0.00 | 0.00 | 0.00 | 61 | 1015.6 | |
| 20260504013016 | 13 | 0.0 | 0.0 | 0.00 | 0.00 | 0.00 | 59 | 1015.4 | |
| 20260504012016 | 14 | 0.0 | 0.0 | 0.00 | 0.00 | 0.00 | 58 | 1015.4 | |
| 20260504011517 | 14 | 0.0 | 0.0 | 0.00 | 0.00 | 0.00 | 58 | 1015.4 | |
| 20260504010516 | 15 | 0.0 | 0.0 | 0.00 | 0.00 | 0.00 | 56 | 1015.2 | |
| 20260504005516 | 15 | 0.0 | 0.0 | 0.00 | 0.00 | 0.00 | 55 | 1015.1 | |
| 20260504004516 | 15 | 0.0 | 0.0 | 0.00 | 0.00 | 0.00 | 54 | 1015.0 | |
| 20260504003516 | 16 | 0.0 | 0.0 | 0.00 | 0.00 | 0.00 | 53 | 1014.9 | |
| 20260504002516 | 16 | 0.0 | 0.0 | 0.00 | 0.00 | 0.00 | 51 | 1014.8 |